Flag for USA

Past Weather in Oxnard, California, USA — Yesterday and Last 2 Weeks

Now
66 °F

Mostly cloudy.


Feels Like: 66 °F
Forecast: 70 / 61 °F
Wind: 13 mph from West

Location: Oxnard Airport

Current Time: Aug 4, 2020 at 1:35:29 pm

Latest Report: Aug 4, 2020 at 12:51 pm


Visibility: 10 mi

Pressure: 30.00 "Hg

Humidity: 81%

Dew Point: 60 °F

Location of OxnardLocation

Past Weather in Oxnard — Graph

°F

Oxnard Temperature Yesterday

Maximum temperature yesterday: 69 °F (at 3:51 pm)
Minimum temperature yesterday: 57 °F (at 12:51 am)
Average temperature yesterday: 62 °F

High & Low Weather Summary for the Past Weeks

 TemperatureHumidityPressure
High73 °F (Aug 1, 5:51 pm)100% (Jul 21, 11:02 pm)30.00 "Hg (Jul 21, 11:02 pm)
Low54 °F (Jul 24, 5:51 am)59% (Jul 23, 3:51 pm)29.81 "Hg (Jul 21, 6:51 pm)
Average61 °F88%29.91 "Hg
* Reported Jul 20 11:51 am — Aug 4 11:51 am, Oxnard. Weather by CustomWeather, © 2020

Note: Actual official high and low records may vary slightly from our data, if they occured in-between our weather recording intervals... More about our weather records

Oxnard Weather History for the Previous 24 Hours

Scroll right to see more
 ConditionsComfort  
Time TempWeatherWind HumidityBarometerVisibility
11:51 am
Tue, Aug 4
66 °FLow clouds.9 mph81%30.00 "Hg9 mi
10:51 am65 °FLow clouds.10 mph87%29.98 "Hg10 mi
9:51 am65 °FLow clouds.No wind87%29.98 "Hg10 mi
8:51 am64 °FLow clouds.No wind87%29.98 "Hg10 mi
7:51 am63 °FLow clouds.No wind90%29.96 "Hg9 mi
7:06 am62 °FLow clouds.No wind93%29.96 "Hg7 mi
5:51 am62 °FFog.No wind96%29.94 "Hg5 mi
4:51 am62 °FFog.No wind96%29.93 "Hg5 mi
3:51 am62 °FFog.3 mph96%29.91 "Hg5 mi
3:12 am62 °FFog.No wind96%29.92 "Hg4 mi
2:55 am62 °FFog.3 mph96%29.92 "Hg2 mi
2:34 am62 °FFog.No wind96%29.92 "Hg2 mi
2:03 am61 °FFog.No wind100%29.92 "Hg1 mi
1:51 am62 °FFog.5 mph96%29.92 "Hg2 mi
1:21 am61 °FFog.No wind100%29.93 "Hg1 mi
1:00 am62 °FFog.No wind96%29.92 "Hg2 mi
11:51 pm
Mon, Aug 3
62 °FFog.No wind100%29.93 "Hg4 mi
11:05 pm62 °FPassing clouds.No wind96%29.93 "Hg8 mi
10:51 pm62 °FPassing clouds.3 mph96%29.92 "Hg8 mi
9:51 pm62 °FClear.3 mph93%29.92 "Hg9 mi
8:51 pm63 °FClear.No wind90%29.90 "Hg10 mi
7:51 pm64 °FPassing clouds.3 mph90%29.90 "Hg10 mi
6:51 pm66 °FPassing clouds.5 mph84%29.90 "Hg10 mi
5:51 pm68 °FSunny.5 mph76%29.90 "Hg10 mi
4:51 pm68 °FSunny.7 mph76%29.91 "Hg10 mi
3:51 pm69 °FSunny.9 mph73%29.92 "Hg10 mi
2:51 pm67 °FPassing clouds.7 mph79%29.94 "Hg10 mi
1:51 pm68 °FPartly sunny.7 mph78%29.95 "Hg10 mi
1:21 pm66 °FPartly sunny.6 mph81%29.96 "Hg10 mi
Weather by CustomWeather, © 2020

See weather overview